Temperature
16 16 15 15 15 14 14 14 14 14 14 14 14 14 13 13 13 13 13 13 13 13 13 13 13 13 13 13 13 13 13 13 13 14 14 14 14 14 15 15 15 15 15
17 16 16 15 15 15 14 14 14 14 14 14 14 14 14 13 13 13 13 13 13 13 13 13 13 13 13 13 13 13 13 13 13 13 14 14 14 14 14 14 15 15 15
17 16 16 15 15 15 15 14 14 14 14 14 14 14 14 13 13 13 13 13 13 13 13 13 13 13 13 13 13 13 13 13 13 13 13 13 13 14 14 14 14 14 14
17 16 16 16 15 15 15 15 14 14 14 14 14 14 14 14 13 13 13 13 13 13 13 13 13 13 13 13 13 12 12 13 13 13 13 13 13 13 13 13 14 14 14
17 17 16 16 16 15 15 15 15 14 14 14 14 14 14 13 13 13 13 13 13 13 13 13 13 13 13 13 13 13 12 13 13 13 13 13 13 13 13 13 13 13 14
17 17 17 16 16 15 15 15 15 15 14 14 14 14 14 13 13 13 13 13 13 13 13 13 13 13 13 13 12 12 12 12 12 12 12 12 13 12 13 13 13 13 13
18 17 17 16 16 16 15 15 15 15 14 14 14 14 14 13 13 13 13 13 13 13 13 13 13 13 12 12 12 12 12 12 12 12 12 12 12 12 12 12 12 12 13
18 17 17 17 16 16 15 15 15 15 14 14 14 14 13 13 13 13 13 13 13 13 12 12 12 12 12 12 12 12 12 12 12 12 12 12 12 12 12 12 12 12 12
18 18 17 17 16 16 16 15 15 15 14 14 14 14 13 13 13 13 13 12 12 12 12 12 12 12 12 12 12 12 12 12 12 12 11 11 11 12 12 12 12 12 12
18 18 18 17 17 16 16 16 15 15 14 14 14 14 13 13 13 13 12 12 12 12 12 12 12 12 12 12 12 12 12 12 11 11 11 11 11 11 11 11 11 11 11
18 18 17 17 17 16 16 16 15 15 14 14 14 13 13 13 13 12 12 12 12 12 12 11 11 11 11 11 11 11 11 11 11 11 11 11 11 11 11 11 11 11 11
18 18 17 17 17 17 16 16 15 15 14 14 13 13 13 12 12 12 12 12 12 12 11 11 11 11 11 11 11 11 11 11 11 11 11 11 11 11 11 10 10 10 10
17 17 17 17 17 17 16 16 15 15 14 14 13 13 13 12 12 12 12 12 11 11 11 11 11 10 10 10 10 10 10 10 10 10 10 10 10 10 10 10 10 10 10
17 17 17 17 17 16 16 16 15 15 14 14 13 13 13 13 12 12 11 11 11 11 11 10 10 10 10 10 10 10 10 10 9 9 9 9 9 9 9 9 9 9 9
17 17 16 16 16 16 16 16 15 15 15 14 14 14 13 13 12 12 11 11 11 11 10 10 10 9 9 9 9 9 9 9 9 9 9 9 9 9 9 9 9 9 9
16 16 16 16 16 16 16 15 15 14 14 14 13 13 13 12 12 11 11 11 10 10 10 10 9 9 9 9 9 8 8 8 8 8 8 8 8 8 8 8 8 8 8
15 15 15 15 15 15 15 15 15 14 14 13 13 13 12 12 11 11 11 10 10 10 10 9 9 9 9 8 8 8 8 8 8 8 7 7 7 7 7 7 7 7 7
14 14 14 15 15 15 15 15 15 15 14 14 13 13 12 11 11 11 10 10 10 10 9 9 9 9 8 8 8 8 7 7 7 7 7 7 7 6 6 6 6 6 6
13 14 14 14 14 14 15 15 14 14 14 13 13 12 12 11 10 10 10 10 10 10 9 9 8 8 8 8 7 7 7 7 7 6 6 6 6 6 5 5 5 5 5
13 13 13 13 13 13 14 14 14 14 13 13 13 12 12 11 10 10 10 10 9 9 9 8 8 8 7 7 7 7 7 6 6 6 6 5 5 5 5 5 4 4 4
12 12 12 12 13 13 13 13 13 13 13 13 13 12 12 11 11 10 10 9 9 9 8 8 8 7 7 7 7 6 6 6 6 5 5 5 4 4 4 4 4 4 3
11 11 11 12 12 12 12 12 13 13 13 13 12 11 11 10 10 10 9 9 8 8 8 7 7 7 7 6 6 6 6 5 5 4 4 4 4 4 4 4 3 3 3
10 11 11 11 11 12 12 12 12 12 12 12 12 11 11 10 10 9 9 8 8 7 7 7 6 6 6 6 6 5 5 5 4 4 4 4 3 3 3 3 3 3 2
10 10 10 10 11 11 11 11 11 11 11 11 11 11 10 10 9 9 8 8 7 7 7 6 6 6 6 5 5 5 4 4 4 3 3 3 3 3 3 3 3 2 2
9 9 9 10 10 10 10 10 10 11 11 10 10 10 10 9 9 8 8 7 7 6 6 6 5 5 5 5 4 4 4 3 3 3 3 3 3 3 2 2 2 2 1
8 8 9 9 9 9 10 10 10 10 10 10 10 9 9 9 8 8 7 7 6 6 5 5 5 5 4 4 4 4 3 3 3 3 3 3 3 2 2 2 2 1 1
Wind_Speed
9 7 7 6 6 5 4 5 4 3 2 2 2 2 2 1 1 2 1 1 1 0 0 1 0 0 0 0 1 1 1 2 2 2 2 2 1 2 2 2 2 3 5
9 8 8 7 6 5 5 5 5 4 3 3 3 3 3 2 2 2 2 1 1 1 1 1 1 1 1 1 1 1 1 1 2 1 2 2 1 1 1 2 2 2 3
9 9 8 7 6 6 6 5 4 3 3 2 2 3 3 2 2 2 2 2 2 2 2 2 2 1 1 1 1 1 0 0 1 1 1 1 1 1 1 2 2 2 2
9 9 9 8 8 7 6 5 5 4 3 2 2 3 3 2 2 1 1 1 1 1 2 3 2 3 3 3 2 2 1 1 1 1 1 1 2 2 1 1 2 2 2
10 10 10 9 7 7 6 6 5 4 4 3 2 2 2 2 2 2 2 1 1 1 1 1 2 3 4 4 3 3 2 1 1 1 0 1 2 2 1 1 1 2 2
11 11 10 8 8 7 7 6 5 4 3 2 2 2 2 1 2 3 3 2 1 1 1 1 1 1 2 3 3 4 4 3 2 1 1 1 2 2 1 1 1 1 2
11 10 10 9 9 8 7 6 6 5 4 3 3 3 2 2 2 2 3 2 2 1 1 1 0 0 1 1 1 2 1 1 2 3 2 2 2 2 1 1 1 2 3
11 10 10 10 9 8 7 7 6 5 4 4 3 3 3 2 2 2 3 3 2 1 1 1 1 0 0 2 3 2 2 1 1 1 2 2 2 2 2 2 2 2 3
11 11 11 11 10 9 9 8 6 5 5 4 3 4 3 2 2 3 5 3 2 1 0 1 2 1 1 3 4 3 2 2 3 3 2 2 3 2 1 1 1 1 2
12 12 11 11 11 11 11 8 6 5 6 5 4 4 4 3 3 4 5 3 3 1 1 2 2 3 3 4 4 3 2 0 2 3 4 5 5 6 6 2 1 0 1
9 9 10 11 11 11 9 7 7 6 6 5 5 3 3 3 3 5 6 4 4 3 2 1 1 3 4 4 4 3 3 2 1 2 3 3 4 4 4 3 2 0 0
6 8 10 11 10 9 9 8 8 8 7 6 5 3 2 2 3 4 6 6 6 4 3 1 1 3 4 5 4 4 4 4 3 3 3 3 3 3 3 3 4 3 1
6 8 9 10 9 9 10 10 7 7 7 6 6 5 3 2 2 5 6 7 7 4 2 3 3 4 4 4 5 5 4 3 3 3 2 1 1 2 3 3 4 4 4
6 7 8 9 8 8 8 9 8 9 8 8 7 6 5 3 3 3 3 4 5 4 2 3 5 6 5 4 4 4 3 3 3 2 1 1 2 2 3 3 3 3 3
5 6 6 8 9 8 7 7 9 9 10 10 8 8 8 7 8 10 8 5 5 4 4 3 3 2 3 3 3 3 3 3 3 2 2 2 2 2 2 2 2 2 2
5 5 5 6 7 7 7 3 2 5 9 12 12 11 8 9 11 12 11 9 9 9 6 4 3 3 3 3 3 2 2 2 2 2 2 1 1 2 2 2 2 2 2
6 6 5 6 8 9 9 9 6 2 3 8 12 14 12 12 13 13 11 10 9 10 5 4 4 4 3 3 3 2 2 1 1 2 2 1 1 1 1 2 2 2 2
6 7 7 6 8 10 10 10 9 9 7 4 6 11 13 13 13 13 12 9 5 4 4 5 5 4 4 4 3 3 2 2 2 2 1 1 1 1 1 2 2 2 3
7 6 6 6 7 8 9 9 9 10 9 6 4 6 10 11 11 11 11 6 6 5 5 5 5 5 4 4 4 3 3 2 2 2 1 1 1 1 1 1 2 4 3
8 10 8 7 6 7 9 10 10 10 10 10 9 8 8 7 6 6 5 5 6 6 6 6 5 5 5 5 4 4 3 2 2 2 1 0 0 0 1 2 2 3 3
7 8 10 7 8 8 10 11 11 11 11 10 10 11 15 10 9 9 8 7 7 7 7 6 6 5 5 5 4 4 4 3 2 2 1 1 0 1 1 2 3 3 4
7 7 8 8 8 9 10 11 11 12 12 12 8 10 17 9 8 8 7 7 6 6 6 7 6 5 5 5 5 5 4 3 3 2 2 1 1 1 2 2 3 4 4
8 8 8 8 8 10 10 10 11 12 12 11 11 11 11 9 9 8 8 7 7 6 6 6 6 5 4 4 5 5 5 4 4 3 2 2 1 2 2 3 5 5 6
8 9 9 9 8 9 9 10 11 12 12 12 12 11 11 10 10 9 8 7 7 7 6 6 6 8 8 5 5 5 5 6 5 4 3 2 2 3 3 4 5 6 7
7 8 8 8 8 9 9 9 10 11 12 12 12 11 11 10 10 9 9 8 9 8 8 7 6 7 8 8 7 6 7 7 5 4 3 2 3 4 5 5 6 7 7
7 7 7 7 7 7 8 9 9 10 11 11 11 11 11 11 10 10 9 9 8 8 7 6 8 8 8 8 8 9 8 7 5 4 3 2 3 4 5 6 7 8 9
Wind_Direction
192 193 190 199 203 201 207 219 223 227 220 213 207 195 186 185 169 150 183 178 152 302 282 150 206 195 84 46 80 90 114 149 193 291 298 318 344 354 345 327 290 254 243
193 190 194 201 198 200 213 222 220 226 233 225 213 199 197 189 172 172 197 195 193 212 233 180 247 159 131 108 106 108 147 174 176 254 313 329 318 300 305 299 302 274 253
188 188 193 198 198 204 214 218 216 218 228 231 204 203 204 198 187 197 198 201 213 218 215 211 230 167 183 176 144 137 132 94 151 177 292 309 310 323 340 318 315 317 289
186 186 194 201 201 204 208 208 207 204 204 207 208 201 199 192 181 191 184 184 210 231 224 220 217 194 196 194 181 174 149 94 87 110 292 320 315 315 356 330 326 325 310
185 191 201 202 198 196 199 202 202 199 199 192 184 196 201 191 204 195 190 180 198 255 263 238 226 204 195 184 169 172 156 137 109 114 322 348 332 344 322 300 292 308 298
189 197 199 193 190 192 196 193 188 192 193 173 177 183 195 224 211 184 169 175 185 184 235 279 268 214 194 174 157 150 153 158 170 168 183 237 286 278 272 283 290 348 308
195 197 194 189 189 193 192 184 187 192 187 182 185 176 189 237 226 186 170 158 166 184 194 218 235 128 162 141 141 119 99 127 162 167 177 228 248 247 227 260 235 226 244
196 198 195 190 192 189 184 188 193 187 186 190 189 185 189 237 232 194 153 127 124 150 179 184 172 219 155 143 126 100 59 21 336 174 186 228 242 241 217 224 239 264 280
200 200 198 192 190 186 188 193 190 180 186 191 189 185 184 233 221 171 143 125 114 71 31 129 160 167 164 133 125 118 68 3 21 62 84 45 18 11 60 76 35 32 322
209 205 198 191 189 191 194 192 185 179 186 184 184 184 182 201 191 166 150 136 131 115 61 53 96 114 116 125 134 137 128 342 26 33 33 27 24 24 35 60 113 116 282
211 201 194 191 192 192 189 185 178 177 173 175 180 186 186 194 188 171 158 149 156 145 127 76 57 84 95 108 126 140 150 134 85 70 55 38 30 24 20 20 21 99 191
201 198 196 193 194 191 182 183 178 172 172 178 176 180 199 208 189 169 160 156 151 145 155 168 148 93 90 92 99 105 100 92 85 80 70 50 31 11 0 2 3 11 16
205 205 203 195 193 183 182 183 178 175 177 183 180 185 196 201 194 171 158 153 151 147 162 164 139 99 86 79 83 84 83 87 91 87 77 44 359 344 357 359 2 8 9
215 215 204 194 190 186 184 183 183 184 185 187 187 188 188 187 187 170 153 146 142 131 119 113 100 87 80 77 72 66 69 92 105 104 96 35 6 16 20 12 4 2 8
226 219 209 199 190 187 188 190 190 195 191 188 192 184 181 193 202 184 168 167 167 160 133 102 87 83 78 66 66 68 67 73 77 74 75 49 29 23 10 4 11 16 15
233 224 215 204 192 183 175 166 179 189 193 190 183 176 188 188 180 180 176 172 166 156 136 135 140 137 134 129 116 93 76 80 88 93 85 74 49 27 9 3 13 17 358
239 231 221 209 197 188 182 178 174 147 154 176 180 180 177 176 177 175 170 165 161 150 139 153 158 160 156 148 141 136 131 117 108 101 93 80 62 36 24 6 1 357 342
248 234 223 217 207 197 192 188 183 177 177 183 187 184 179 177 176 173 162 142 145 147 155 163 166 165 160 155 153 150 141 123 104 101 91 67 58 50 23 358 348 336 325
247 241 231 222 216 206 194 186 184 184 182 173 164 179 182 176 173 173 160 157 166 170 168 167 167 164 163 160 158 154 148 142 131 115 94 72 52 41 355 331 324 326 326
247 244 236 223 215 208 196 190 188 188 185 183 185 182 169 159 170 177 176 169 169 173 172 171 170 167 164 162 160 155 148 146 141 131 133 129 60 36 309 312 310 309 304
254 243 235 229 216 210 203 197 193 190 190 191 193 186 177 178 182 181 181 179 177 177 174 172 169 168 165 161 160 160 160 164 165 163 166 194 233 283 286 289 294 295 297
252 242 234 230 222 216 210 202 194 193 193 191 185 185 184 178 180 181 183 185 181 177 171 166 167 169 169 168 166 163 165 170 176 178 186 209 243 274 287 292 294 296 298
252 242 238 234 225 217 211 204 195 192 191 189 183 180 182 185 184 182 182 179 173 169 164 160 159 163 164 168 168 164 170 181 185 182 187 211 243 268 280 286 291 295 297
254 241 237 233 224 216 209 205 197 191 188 186 183 183 183 183 181 178 175 169 165 163 161 160 161 166 165 163 168 171 175 178 179 182 189 211 242 266 276 282 286 287 289
258 244 236 226 218 212 207 203 198 191 188 185 183 180 178 176 174 171 167 164 161 162 163 159 160 164 166 165 166 171 172 171 176 188 206 219 253 269 275 279 283 286 287
260 247 238 226 214 206 201 198 195 190 187 183 179 176 173 172 169 165 162 161 160 160 159 158 163 165 165 167 172 174 175 179 191 215 233 244 257 269 276 280 283 284 285
Height
1494 1494 1495 1496 1497 1497 1497 1497 1497 1496 1496 1496 1495 1495 1494 1493 1493 1492 1491 1491 1490 1490 1489 1489 1489 1489 1489 1489 1490 1490 1491 1491 1491 1492 1492 1493 1493 1494 1494 1495 1496 1497 1498
1491 1492 1493 1494 1495 1495 1495 1495 1495 1495 1495 1495 1494 1494 1494 1493 1492 1492 1491 1490 1490 1489 1489 1489 1488 1488 1488 1488 1489 1489 1490 1490 1491 1490 1491 1491 1491 1491 1492 1492 1493 1494 1495
1489 1490 1491 1492 1492 1493 1493 1494 1494 1494 1494 1493 1493 1493 1492 1492 1491 1491 1490 1490 1489 1489 1488 1488 1487 1487 1487 1487 1488 1488 1488 1489 1489 1489 1489 1489 1489 1489 1489 1490 1490 1491 1492
1486 1487 1488 1489 1490 1491 1491 1492 1492 1492 1492 1492 1491 1491 1491 1490 1490 1490 1489 1489 1488 1488 1488 1487 1487 1486 1486 1486 1487 1487 1487 1487 1488 1487 1487 1487 1487 1487 1487 1487 1488 1488 1489
1482 1483 1485 1486 1487 1488 1489 1490 1490 1490 1490 1490 1490 1489 1489 1489 1488 1488 1488 1487 1487 1487 1486 1486 1486 1486 1486 1486 1486 1486 1486 1486 1486 1486 1486 1486 1486 1485 1485 1485 1486 1486 1486
1478 1480 1482 1483 1484 1485 1486 1487 1487 1487 1487 1487 1487 1487 1487 1486 1486 1486 1486 1485 1485 1485 1485 1485 1485 1485 1485 1485 1485 1485 1485 1484 1484 1484 1484 1484 1484 1484 1484 1484 1483 1483 1483
1474 1476 1478 1479 1481 1482 1483 1484 1484 1485 1485 1485 1485 1485 1484 1484 1484 1484 1483 1483 1483 1483 1483 1483 1483 1483 1483 1483 1484 1483 1483 1483 1483 1483 1483 1483 1483 1483 1482 1482 1481 1481 1481
1471 1472 1474 1475 1477 1478 1479 1480 1481 1482 1482 1482 1482 1482 1482 1482 1481 1481 1481 1481 1481 1480 1481 1481 1481 1481 1482 1482 1482 1482 1482 1482 1481 1481 1481 1481 1481 1481 1480 1480 1479 1479 1479
1466 1467 1469 1471 1473 1474 1475 1476 1477 1478 1479 1479 1479 1479 1479 1479 1479 1478 1478 1478 1478 1478 1478 1478 1479 1479 1479 1480 1480 1480 1480 1480 1480 1480 1480 1479 1479 1479 1478 1478 1477 1476 1476
1462 1463 1465 1467 1468 1470 1471 1472 1474 1474 1475 1476 1476 1476 1476 1476 1476 1476 1476 1476 1476 1476 1476 1476 1476 1477 1477 1477 1478 1478 1478 1478 1478 1478 1478 1478 1477 1477 1476 1476 1475 1474 1473
1458 1459 1460 1462 1463 1465 1467 1468 1469 1471 1471 1472 1472 1473 1473 1473 1473 1473 1473 1473 1473 1473 1473 1474 1474 1475 1475 1475 1475 1476 1476 1476 1476 1476 1476 1475 1475 1475 1474 1474 1473 1472 1471
1453 1454 1455 1457 1459 1460 1462 1464 1465 1466 1467 1468 1469 1469 1469 1470 1470 1470 1470 1471 1471 1471 1471 1472 1472 1472 1473 1473 1473 1473 1473 1473 1473 1473 1473 1473 1473 1472 1472 1471 1471 1470 1469
1448 1449 1450 1452 1453 1455 1457 1458 1460 1461 1462 1463 1464 1465 1466 1466 1467 1467 1468 1468 1469 1469 1469 1470 1470 1470 1470 1470 1470 1471 1471 1471 1471 1471 1471 1470 1470 1470 1469 1469 1468 1467 1467
1443 1443 1445 1446 1448 1449 1451 1453 1454 1456 1457 1459 1460 1461 1462 1463 1463 1464 1465 1466 1466 1467 1467 1467 1468 1468 1468 1468 1468 1468 1468 1469 1469 1469 1468 1468 1468 1467 1467 1466 1465 1464 1463
1438 1438 1439 1440 1442 1443 1445 1447 1448 1450 1452 1454 1455 1456 1457 1458 1460 1461 1462 1463 1463 1464 1465 1465 1465 1466 1466 1466 1466 1466 1466 1466 1466 1466 1466 1466 1465 1465 1464 1463 1462 1461 1460
1432 1432 1433 1434 1435 1437 1439 1441 1442 1445 1447 1448 1450 1452 1453 1455 1456 1457 1458 1460 1460 1461 1462 1462 1463 1463 1464 1464 1464 1464 1464 1464 1464 1464 1464 1463 1463 1462 1461 1460 1459 1458 1456
1427 1427 1427 1427 1428 1430 1432 1434 1436 1438 1440 1442 1444 1446 1448 1450 1451 1453 1454 1456 1457 1458 1459 1459 1460 1461 1461 1462 1462 1462 1462 1462 1462 1461 1461 1461 1460 1459 1458 1457 1456 1455 1453
1421 1420 1420 1421 1421 1423 1425 1427 1429 1431 1434 1435 1438 1440 1443 1445 1447 1449 1450 1452 1453 1454 1455 1456 1457 1458 1458 1459 1459 1459 1459 1459 1459 1459 1458 1458 1457 1456 1455 1454 1453 1451 1450
1414 1413 1413 1414 1415 1416 1418 1420 1422 1425 1427 1430 1432 1434 1437 1439 1442 1444 1445 1447 1448 1449 1451 1452 1453 1454 1455 1456 1456 1456 1456 1456 1456 1456 1455 1455 1454 1453 1452 1451 1449 1448 1446
1406 1406 1406 1406 1407 1408 1410 1412 1414 1417 1419 1422 1425 1428 1430 1433 1435 1437 1439 1442 1444 1445 1447 1448 1450 1451 1452 1453 1453 1453 1453 1453 1453 1452 1452 1451 1451 1450 1448 1447 1445 1444 1442
1398 1398 1398 1398 1399 1400 1402 1404 1406 1409 1411 1414 1418 1421 1424 1427 1429 1432 1434 1437 1439 1441 1443 1444 1446 1447 1448 1449 1449 1449 1449 1449 1449 1449 1448 1448 1447 1446 1444 1443 1441 1440 1438
1391 1390 1389 1389 1390 1392 1394 1396 1399 1401 1404 1408 1411 1415 1418 1421 1424 1427 1429 1432 1434 1437 1439 1440 1442 1443 1444 1445 1445 1445 1445 1445 1445 1445 1444 1444 1443 1441 1440 1439 1437 1435 1433
1382 1381 1381 1381 1382 1384 1386 1388 1390 1393 1397 1400 1404 1408 1411 1414 1418 1421 1424 1427 1430 1432 1434 1436 1438 1439 1440 1441 1441 1441 1441 1441 1441 1441 1440 1439 1438 1437 1435 1434 1432 1430 1428
1374 1373 1372 1372 1374 1375 1377 1379 1382 1385 1389 1393 1397 1401 1404 1408 1412 1416 1419 1423 1425 1428 1430 1432 1433 1435 1436 1436 1437 1437 1437 1437 1437 1436 1436 1434 1433 1432 1430 1429 1427 1424 1422
1366 1365 1364 1364 1365 1367 1369 1372 1375 1378 1381 1385 1389 1394 1398 1403 1407 1411 1414 1418 1421 1424 1426 1428 1429 1430 1431 1432 1432 1432 1433 1432 1432 1432 1431 1430 1428 1427 1425 1423 1421 1419 1416
1359 1357 1357 1357 1358 1360 1362 1364 1367 1371 1374 1378 1382 1387 1392 1397 1401 1406 1409 1413 1416 1419 1422 1423 1425 1426 1427 1427 1428 1428 1428 1428 1427 1426 1426 1424 1423 1421 1419 1417 1415 1413 1410